Weather History for Carbondale, IL

Change the Weather History Date:

Wednesday, September 26, 2012

  Actual Average Record
Temperature  
Mean Temperature 70 °F -  
Max Temperature 78 °F 76 °F 93 °F (1920)
Min Temperature 63 °F 51 °F 30 °F (1928)
Cooling Degree Days 5    
Growing Degree Days 20 (Base 50)    
Moisture  
Dew Point 65 °F    
Average Humidity 86    
Maximum Humidity 100    
Minimum Humidity 64    
Precipitation  
Precipitation 0.13 in - - ()
Sea Level Pressure  
Sea Level Pressure 30.03 in    
Wind  
Wind Speed 5 mph (SSW)    
Max Wind Speed 13 mph    
Max Gust Speed -    
Visibility 7 miles    
Events Rain , Thunderstorm    
Averages and records for this station are not official NWS values.
T = Trace of Precipitation, MM = Missing Value Source: NWS Daily Summary

Daily Weather History Graph

Daily Weather History Graph

Search for Another Location

Airport:

Trip Planner

Search our weather history database for the weather conditions in past years. The results will help you decide how hot, cold, wet, or windy it might be!

Date:

Astronomy

Sep. 26, 2012 Rise Set
Actual Time 6:48 AM CDT 6:46 PM CDT
Civil Twilight 6:22 AM CDT 7:13 PM CDT
Nautical Twilight 5:51 AM CDT 7:43 PM CDT
Astronomical Twilight 5:21 AM CDT 8:14 PM CDT
Moon 4:44 PM CDT (9/26) 3:17 AM CDT (9/26)
Length of Visible Light 12h 50m
Length of Day
11h 58m
Waxing Gibbous, 88% of the Moon is Illuminated
Sep 26
Waxing Gibbous
Sep 29
Full
Oct 8
Last Quarter
Oct 15
New
Oct 21
First Quarter

Hourly Weather History & Observations

Time (CDT) Temp. Dew Point Humidity Pressure Visibility Wind Dir Wind Speed Gust Speed Precip Events Conditions
12:52 AM 68.0 °F 60.1 °F 76% 29.99 in 10.0 mi Calm Calm - N/A   Mostly Cloudy
1:52 AM 68.0 °F 62.1 °F 81% 29.96 in 10.0 mi SSE 3.5 mph - N/A   Partly Cloudy
3:52 AM 71.1 °F 64.9 °F 81% 29.95 in 8.0 mi South 8.1 mph - N/A   Mostly Cloudy
4:52 AM 72.0 °F 64.9 °F 78% 29.98 in 8.0 mi SSW 5.8 mph - N/A   Overcast
5:52 AM 72.0 °F 66.0 °F 81% 29.98 in 8.0 mi SSW 12.7 mph - N/A   Partly Cloudy
6:52 AM 70.0 °F 66.0 °F 87% 29.99 in 6.0 mi South 4.6 mph - N/A   Partly Cloudy
7:27 AM 71.6 °F 66.2 °F 83% 30.01 in 4.0 mi SSW 8.1 mph - N/A   Mostly Cloudy
7:52 AM 71.1 °F 66.9 °F 87% 30.01 in 4.0 mi SSW 8.1 mph - N/A   Overcast
8:37 AM 73.4 °F 68.0 °F 83% 30.03 in 5.0 mi SW 10.4 mph - N/A   Haze
8:52 AM 73.0 °F 68.0 °F 84% 30.02 in 5.0 mi SSW 10.4 mph - N/A   Haze
9:16 AM 73.4 °F 68.0 °F 83% 30.05 in 5.0 mi WSW 9.2 mph - N/A   Haze
9:52 AM 69.1 °F 66.0 °F 90% 30.07 in 6.0 mi NW 5.8 mph - 0.01 in Rain Light Rain
10:10 AM 68.0 °F 64.4 °F 88% 30.09 in 9.0 mi North 5.8 mph - 0.00 in   Scattered Clouds
10:52 AM 68.0 °F 64.9 °F 90% 30.04 in 7.0 mi ESE 4.6 mph - 0.01 in   Overcast
11:46 AM 69.8 °F 66.2 °F 88% 30.06 in 10.0 mi South 10.4 mph - N/A Thunderstorm Thunderstorm
11:52 AM 70.0 °F 66.0 °F 87% 30.06 in 9.0 mi South 10.4 mph - N/A Thunderstorm Thunderstorm
12:39 PM 66.2 °F 62.6 °F 88% 30.00 in 8.0 mi NNW 10.4 mph - 0.03 in Rain Light Rain
1:52 PM 77.0 °F 64.0 °F 64% 30.00 in 10.0 mi SSW 12.7 mph - 0.00 in   Mostly Cloudy
2:52 PM 75.9 °F 63.0 °F 64% 30.01 in 10.0 mi SW 5.8 mph - N/A   Mostly Cloudy
3:23 PM 75.2 °F 62.6 °F 65% 30.01 in 10.0 mi Variable 3.5 mph - N/A Rain , Thunderstorm Light Thunderstorms and Rain
3:52 PM 75.0 °F 64.9 °F 71% 30.00 in 10.0 mi Calm Calm - N/A Rain , Thunderstorm Light Thunderstorms and Rain
4:05 PM 75.2 °F 66.2 °F 73% 30.01 in 10.0 mi Calm Calm - 0.00 in Rain Light Rain
4:52 PM 73.0 °F 64.0 °F 73% 30.02 in 10.0 mi West 4.6 mph - 0.00 in Rain Light Rain
5:52 PM 70.0 °F 64.9 °F 84% 30.02 in 4.0 mi South 8.1 mph - 0.02 in Rain Light Rain
6:00 PM 69.8 °F 66.2 °F 88% 30.03 in 4.0 mi South 6.9 mph - 0.02 in Rain , Thunderstorm Light Rain
6:26 PM 66.2 °F 64.4 °F 94% 30.02 in 6.0 mi South 3.5 mph - 0.05 in Rain , Thunderstorm Rain
6:52 PM 66.9 °F 64.9 °F 93% 30.03 in 4.0 mi SW 6.9 mph - 0.08 in Rain , Thunderstorm Light Rain
6:59 PM 66.2 °F 64.4 °F 94% 30.03 in 6.0 mi SW 6.9 mph - 0.00 in Rain Light Rain
7:22 PM 66.2 °F 64.4 °F 94% 30.03 in 10.0 mi SSW 4.6 mph - 0.01 in   Mostly Cloudy
7:52 PM 66.9 °F 64.9 °F 93% 30.05 in 10.0 mi SSW 3.5 mph - 0.01 in   Overcast
8:27 PM 64.4 °F 64.4 °F 100% 30.05 in 9.0 mi South 3.5 mph - N/A   Partly Cloudy
8:52 PM 64.9 °F 63.0 °F 93% 30.06 in 8.0 mi Calm Calm - N/A   Clear
9:45 PM 64.4 °F 62.6 °F 94% 30.09 in 2.0 mi South 3.5 mph - N/A   Partly Cloudy
9:52 PM 63.0 °F 62.1 °F 97% 30.09 in 3.0 mi SSW 3.5 mph - N/A   Mostly Cloudy
9:59 PM 64.4 °F 62.6 °F 94% 30.09 in 4.0 mi SSW 4.6 mph - N/A   Mostly Cloudy
10:17 PM 66.2 °F 64.4 °F 94% 30.09 in 6.0 mi SW 4.6 mph - N/A   Overcast
10:52 PM 64.9 °F 64.0 °F 97% 30.09 in 3.0 mi West 4.6 mph - N/A   Overcast
11:52 PM 66.0 °F 64.9 °F 96% 30.08 in 4.0 mi West 3.5 mph - N/A   Overcast